TimeMST,TemperatureF,Dew PointF,Humidity,Sea Level PressureIn,VisibilityMPH,Wind Direction,Wind SpeedMPH,Gust SpeedMPH,PrecipitationIn,Events,Conditions,WindDirDegrees,DateUTC
12:48 AM,43.0,24.1,47,29.61,-9999.0,West,13.8,-,N/A,,Unknown,280,2012-12-03 07:48:00
1:48 AM,41.0,24.1,51,29.63,-9999.0,West,18.4,24.2,N/A,,Unknown,280,2012-12-03 08:48:00
2:48 AM,39.0,21.9,50,29.68,-9999.0,West,13.8,-,N/A,,Unknown,270,2012-12-03 09:48:00
3:48 AM,37.0,21.9,54,29.71,-9999.0,West,12.7,-,N/A,,Unknown,270,2012-12-03 10:48:00
4:48 AM,37.0,21.9,54,29.73,-9999.0,West,9.2,-,N/A,,Unknown,260,2012-12-03 11:48:00
5:48 AM,37.0,21.0,52,29.75,-9999.0,WSW,15.0,-,N/A,,Unknown,250,2012-12-03 12:48:00
6:48 AM,37.0,21.9,54,29.78,-9999.0,West,12.7,-,N/A,,Unknown,260,2012-12-03 13:48:00
7:48 AM,34.0,21.9,61,29.81,-9999.0,West,12.7,-,N/A,,Unknown,260,2012-12-03 14:48:00
8:48 AM,39.9,23.0,51,29.82,-9999.0,WSW,13.8,20.7,N/A,,Unknown,250,2012-12-03 15:48:00
9:48 AM,45.0,21.9,40,29.82,-9999.0,West,15.0,-,N/A,,Unknown,260,2012-12-03 16:48:00
10:48 AM,48.9,21.0,33,29.84,-9999.0,West,19.6,27.6,N/A,,Unknown,260,2012-12-03 17:48:00
11:48 AM,51.1,21.0,31,29.84,-9999.0,WSW,21.9,27.6,N/A,,Unknown,250,2012-12-03 18:48:00
12:48 PM,52.0,19.9,28,29.83,-9999.0,WNW,28.8,35.7,N/A,,Unknown,290,2012-12-03 19:48:00
1:48 PM,53.1,19.0,26,29.84,-9999.0,WNW,27.6,38.0,N/A,,Unknown,290,2012-12-03 20:48:00
2:48 PM,53.1,19.9,27,29.86,-9999.0,WNW,24.2,35.7,N/A,,Unknown,290,2012-12-03 21:48:00
3:48 PM,50.0,19.9,31,29.88,-9999.0,West,20.7,32.2,N/A,,Unknown,280,2012-12-03 22:48:00
4:48 PM,41.0,21.0,45,29.94,-9999.0,NW,8.1,-,N/A,,Unknown,320,2012-12-03 23:48:00
5:48 PM,36.0,21.0,55,29.98,-9999.0,WSW,4.6,-,N/A,,Unknown,250,2012-12-04 00:48:00
6:48 PM,32.0,21.9,66,30.01,-9999.0,West,4.6,-,N/A,,Unknown,280,2012-12-04 01:48:00
7:48 PM,30.0,21.9,72,30.04,-9999.0,WNW,5.8,-,N/A,,Unknown,300,2012-12-04 02:48:00
8:48 PM,30.0,21.9,72,30.06,-9999.0,West,3.5,-,N/A,,Unknown,280,2012-12-04 03:48:00
9:48 PM,35.1,24.1,64,30.06,-9999.0,West,6.9,-,N/A,,Unknown,270,2012-12-04 04:48:00
10:48 PM,35.1,21.9,59,30.07,-9999.0,West,8.1,-,N/A,,Unknown,260,2012-12-04 05:48:00
11:48 PM,28.9,21.0,72,30.10,-9999.0,WNW,5.8,-,N/A,,Unknown,300,2012-12-04 06:48:00